Home   Weather   Poitiers   Past weeks

Flag for France Past Weather in Poitiers, Poitou-Charentes, France — Yesterday and Last 2 Weeks

45 °F


Feels Like: 41 °F
Forecast: 44 / 64 °F
Wind: 6 mph from North

Location: Poitiers Airport

Current Time: Oct 28, 2016 at 4:40:09 AM

Latest Report: Oct 28, 2016 at 4:00 AM

Visibility: 0 mi

Pressure: 30.51 "Hg

Humidity: 93%

Dew Point: 43 °F

Location of PoitiersLocation

Past Weather in Poitiers — Graph


Poitiers Temperature Yesterday

Maximum temperature yesterday: 54 °F (at 4:00 PM)
Minimum temperature yesterday: 45 °F (at 9:00 PM)
Average temperature yesterday: 48 °F

High & Low Weather Summary for the Past Weeks

High68 °F (Oct 15, 3:00 PM)100% (Oct 13, 1:00 PM)30.57 "Hg (Oct 13, 1:00 PM)
Low36 °F (Oct 22, 8:30 AM)40% (Oct 18, 4:30 PM)29.59 "Hg (Oct 13, 4:30 PM)
Average52 °F84%30.04 "Hg
* Reported Oct 13 3:00 AM — Oct 28 3:00 AM, Poitiers, Weather by CustomWeather, © 2016

Note: Actual official high and low records may vary slightly from our data, if they occured in-between our weather recording intervals... More about our weather records


Poitiers Weather History for the Previous 24 Hours

Scroll right to see more
Time TempWeatherWind HumidityBarometerVisibility
3:00 AM
Fri, Oct 28
43 °FFog.8 mph100%30.51 "Hg0 mi
2:30 AM43 °FFog.7 mph100%30.51 "Hg0 mi
2:00 AM43 °FFog.6 mph100%30.51 "Hg1 mi
1:30 AM43 °FFog.6 mph100%30.51 "Hg1 mi
1:00 AM43 °FFog.3 mph100%30.51 "Hg2 mi
12:30 AM43 °FFog.6 mph100%30.51 "Hg2 mi
12:00 AM45 °FFog.7 mph93%30.51 "Hg2 mi
11:30 PM
Thu, Oct 27
45 °FFog.8 mph93%30.51 "Hg3 mi
11:00 PM45 °FFog.9 mph100%30.51 "Hg3 mi
10:30 PM46 °FFog.8 mph93%30.51 "Hg3 mi
10:00 PM46 °FLow clouds.10 mph93%30.51 "Hg4 mi
9:30 PM45 °FPassing clouds.7 mph100%30.51 "Hg4 mi
9:00 PM45 °FClear.7 mph93%30.51 "Hg4 mi
8:30 PM46 °FClear.6 mph93%30.51 "Hg5 mi
8:00 PM48 °FClear.10 mph87%30.51 "Hg10 mi
7:30 PM48 °FClear.10 mph87%30.51 "Hg10 mi
7:00 PM50 °FPassing clouds.10 mph82%30.51 "HgN/A
6:30 PM50 °FPassing clouds.10 mph88%30.51 "HgN/A
6:00 PM52 °FScattered clouds.13 mph82%30.51 "HgN/A
5:30 PM54 °FScattered clouds.12 mph77%30.51 "HgN/A
5:00 PM54 °FPartly sunny.12 mph82%30.51 "HgN/A
4:30 PM52 °FPartly sunny.12 mph82%30.51 "HgN/A
4:00 PM54 °FOvercast.10 mph82%30.51 "HgN/A
3:30 PM52 °FOvercast.9 mph82%30.51 "HgN/A
3:00 PM52 °FLow clouds.9 mph82%30.54 "HgN/A
2:30 PM50 °FLow clouds.8 mph88%30.54 "HgN/A
2:00 PM50 °FLow clouds.8 mph88%30.54 "HgN/A
1:30 PM48 °FLow clouds.7 mph100%30.54 "HgN/A
1:00 PM48 °FLow clouds.7 mph94%30.54 "HgN/A
12:30 PM48 °FLow clouds.7 mph100%30.57 "Hg4 mi
12:00 PM48 °FFog.7 mph100%30.54 "Hg2 mi
11:30 AM48 °FFog.7 mph94%30.54 "Hg2 mi
11:00 AM46 °FFog.8 mph100%30.54 "Hg2 mi
10:30 AM48 °FFog.8 mph94%30.54 "Hg1 mi
10:00 AM48 °FFog.7 mph94%30.54 "Hg1 mi
9:30 AM46 °FFog.7 mph100%30.51 "Hg1 mi
9:00 AM46 °FFog.8 mph100%30.51 "Hg1 mi
8:30 AM46 °FFog.8 mph100%30.51 "Hg1 mi
8:00 AM46 °FFog.8 mph100%30.48 "Hg1 mi
7:30 AM46 °FFog.6 mph100%30.48 "Hg1 mi
7:00 AM46 °FFog.8 mph100%30.48 "Hg1 mi
6:30 AM46 °FFog.7 mph100%30.48 "Hg1 mi
6:00 AM48 °FFog.7 mph94%30.48 "Hg1 mi
5:30 AM48 °FFog.6 mph94%30.48 "Hg1 mi
5:00 AM48 °FFog.6 mph94%30.48 "Hg1 mi
4:30 AM48 °FFog.6 mph94%30.48 "Hg0 mi
4:00 AM48 °FFog.6 mph100%30.48 "Hg0 mi
Weather by CustomWeather, © 2016

See weather overviewHow to use our weather pages